Location: ?
(35.4554°N, 139.3092°E)
Time: 21:37:04
(UTC+00:00)

SL-16 R/B - Pass Details

Date: 21 April 2021
Orbit: 985 x 1006 km, 99.5° (Epoch: 10 May)

Event Time Altitude Azimuth Distance (km) Brightness Sun altitude
Exits shadow 17:05:01 35° 318° (NW) 1,560 3.5 -31.6°
Drops below altitude 10° 17:08:42 10° 337° (NNW) 2,786 5.1 -31.1°
Sets 17:11:15 0° 341° (NNW) 3,740 5.9 -30.7°
